RH
54 61 76 82 79 52 37 49 37 31 39 29 25 25 41 41 33 26 37 35 33 26 23 20 16 20 26 35 37 40 44 42 36 28 27 24 22 22 20 19 19 19 27 23 22 19 19
58 87 90 99 97 65 58 42 57 35 56 67 45 34 24 24 25 26 27 34 55 40 34 32 26 30 18 21 24 30 34 29 23 23 22 20 21 20 20 21 19 21 27 26 25 27 23
71 98 100 100 82 53 45 52 47 67 46 62 81 80 73 33 37 40 50 50 57 61 44 42 64 28 37 40 35 31 23 22 22 25 24 26 24 20 22 37 40 28 26 31 43 46 30
53 52 73 66 71 60 53 45 48 50 36 45 46 59 100 88 40 34 43 48 62 79 94 98 78 75 33 37 35 30 31 29 25 28 34 38 40 42 43 48 54 50 43 50 55 65 40
44 48 49 61 52 58 61 51 58 56 52 42 81 71 77 53 48 45 54 42 39 66 78 93 100 100 100 80 94 74 49 39 37 34 32 34 36 40 39 43 42 54 51 39 34 33 26
96 82 63 60 74 69 83 68 84 81 61 55 28 85 79 45 55 45 59 57 30 31 35 62 83 95 100 100 100 100 100 95 92 56 38 37 34 34 34 41 48 48 36 32 28 32 27
100 95 75 74 86 84 81 74 67 61 55 53 51 30 37 37 42 64 65 77 61 40 38 34 37 52 62 84 100 100 100 100 100 100 100 74 47 39 41 39 36 34 37 35 45 47 38
100 100 100 79 88 99 95 64 61 77 52 50 60 38 47 59 61 80 80 62 45 40 50 63 36 35 42 42 57 74 84 90 94 99 100 100 100 99 87 60 46 43 40 37 42 47 43
70 83 86 80 85 59 49 69 92 79 76 70 67 54 47 61 80 100 74 50 52 45 40 45 44 38 38 49 61 58 57 55 62 70 79 84 91 97 96 96 93 98 73 86 69 80 65
90 84 70 68 63 52 53 45 58 76 93 80 57 46 54 100 100 74 48 46 43 45 33 37 44 48 51 50 43 50 62 62 58 56 56 50 74 82 80 81 99 82 100 87 95 100 97
95 75 66 78 73 68 66 49 44 75 97 100 64 59 82 100 72 56 56 52 50 45 45 33 28 35 54 50 46 42 43 46 56 55 56 51 52 61 53 68 82 69 100 100 97 98 99
98 89 76 61 78 93 92 38 34 72 99 100 67 73 77 73 49 49 52 52 54 48 42 37 35 38 39 35 33 32 26 21 25 32 42 48 52 45 52 61 62 67 80 90 98 100 66
100 69 62 66 100 100 84 36 33 73 76 94 83 48 41 40 44 53 53 52 61 63 59 54 52 50 49 44 42 31 26 18 15 13 15 18 23 32 36 32 38 56 63 65 72 70 47
66 58 96 100 83 85 63 63 43 63 90 80 40 37 50 58 62 53 52 52 56 60 58 65 67 67 55 48 49 36 17 11 10 11 8 9 12 14 15 20 27 29 24 33 43 54 63
66 100 100 63 91 91 58 42 54 80 48 36 48 52 58 57 52 50 50 51 56 48 48 44 45 39 35 29 24 24 24 21 19 19 16 12 12 10 10 11 12 15 20 26 28 23 27
70 60 58 58 61 51 45 73 89 48 38 41 56 56 56 57 56 60 61 72 73 55 36 29 24 21 18 16 15 15 15 15 15 15 16 17 15 14 15 17 17 17 19 20 30 26 26
60 47 37 24 25 42 75 98 47 30 36 49 56 57 62 42 58 59 73 72 78 40 31 26 21 19 16 13 11 10 9 9 9 12 14 12 13 12 14 18 22 24 22 22 24 31 32
50 44 26 28 40 66 99 38 32 36 53 52 58 71 48 55 51 70 74 53 41 31 26 21 17 12 10 8 7 7 6 7 7 8 10 8 8 8 8 11 14 19 26 28 26 27 28
45 26 28 46 70 55 37 36 41 60 58 73 81 45 63 54 66 60 49 41 29 22 17 14 11 8 7 7 6 7 7 7 7 8 8 8 9 8 7 8 11 14 15 17 18 26 32
29 27 46 66 41 35 42 43 60 90 85 60 38 71 54 67 60 42 33 26 19 17 13 9 8 8 7 8 7 7 8 9 8 8 8 8 9 8 8 9 10 9 10 10 13 18 22
25 45 52 58 35 40 49 44 47 89 88 64 69 57 64 77 54 55 29 18 16 12 10 8 9 8 8 8 8 8 7 8 9 8 8 8 10 10 10 10 9 11 10 10 11 13 17
51 83 60 34 38 50 50 51 55 86 70 53 65 66 78 62 52 49 24 17 11 10 8 8 7 8 7 7 6 8 7 7 8 9 7 8 9 10 10 10 9 11 12 12 11 12 12
89 63 32 37 43 51 40 56 73 89 50 51 65 63 67 67 56 42 20 14 10 8 8 6 6 7 7 7 7 6 6 7 7 7 7 7 8 10 12 11 10 11 11 11 12 14 14
50 32 46 51 46 42 48 77 61 66 65 63 63 70 66 67 55 20 16 11 9 8 7 7 6 7 7 8 8 7 7 7 7 7 7 8 8 10 12 12 11 10 10 10 11 12 14
34 42 53 48 53 62 68 64 73 98 70 77 89 75 78 48 23 19 12 9 9 9 8 6 5 6 8 8 10 10 9 8 8 8 8 9 10 10 12 12 12 11 11 11 11 12 12
58 74 49 41 58 62 74 77 76 70 85 92 79 82 30 24 19 13 9 9 8 9 9 7 7 7 8 9 10 10 11 11 10 10 11 10 12 12 11 12 12 12 11 11 10 11 12
78 63 46 60 50 83 69 68 69 72 93 83 81 67 27 17 14 10 9 8 7 8 8 7 9 10 10 10 10 10 11 11 12 11 11 12 13 14 14 14 13 13 12 11 12 12 11
98 56 52 57 68 71 82 87 70 90 78 78 62 27 22 13 9 10 9 8 9 9 7 8 9 10 10 11 10 11 12 11 12 13 13 15 15 16 17 17 16 15 13 13 14 14 14
78 50 62 80 63 69 84 72 84 71 78 86 35 22 14 10 10 10 9 9 11 9 8 8 9 10 9 11 11 12 11 12 13 14 14 15 16 18 18 18 18 18 19 17 15 15 16
Wind_Speed
27 28 25 31 35 41 36 36 35 36 34 32 32 27 28 30 30 30 28 29 36 38 37 34 36 42 46 49 53 49 50 50 52 54 54 54 51 50 48 44 42 36 44 42 45 42 42
27 29 26 32 39 41 40 39 41 38 32 34 34 34 33 31 32 33 35 32 34 34 40 42 40 39 38 42 42 48 48 47 44 46 48 49 47 44 41 45 44 42 44 45 46 50 43
26 29 28 31 36 40 39 40 41 44 36 37 36 38 39 38 41 39 46 37 32 34 36 39 42 39 37 42 39 43 45 47 45 45 47 48 46 47 45 45 45 45 46 46 50 55 47
27 27 29 33 36 41 43 44 43 43 43 37 37 38 41 46 43 40 40 36 35 32 32 32 37 42 42 45 45 46 47 50 51 52 52 52 52 50 50 50 47 49 49 50 51 56 52
28 31 34 38 38 41 44 45 46 46 48 45 40 42 45 47 46 45 45 34 31 33 34 31 32 36 43 48 51 52 53 54 55 58 60 59 59 58 56 55 53 57 61 54 52 59 58
29 37 39 40 42 44 48 49 49 53 52 52 51 46 52 47 48 53 53 44 33 33 35 35 38 37 38 41 48 52 54 58 60 62 62 66 67 65 63 66 66 72 64 61 63 69 68
34 41 44 44 47 50 50 53 51 53 54 54 54 54 51 52 53 50 51 58 48 41 48 39 37 39 45 43 47 51 53 55 57 61 66 70 68 67 72 75 74 75 76 74 72 77 77
41 38 44 46 47 52 51 52 51 55 53 54 56 54 56 55 52 56 58 62 54 41 42 53 49 44 46 47 53 55 58 58 57 60 64 65 63 70 74 78 81 82 82 81 85 83 83
39 40 44 45 48 48 50 52 57 56 55 60 62 59 59 60 60 60 69 64 59 55 48 54 55 57 59 59 59 62 64 66 68 68 68 69 67 71 74 77 79 77 81 80 85 88 86
43 42 42 44 47 47 52 56 57 60 62 67 63 62 65 63 68 75 66 64 65 62 57 57 60 63 68 69 71 73 74 75 75 77 80 79 73 77 80 80 81 81 85 83 81 81 77
41 43 44 46 50 55 57 61 64 61 66 66 73 70 70 70 75 76 72 73 70 67 72 69 72 71 75 80 84 83 84 87 88 89 90 85 85 87 89 85 91 85 88 88 88 86 85
45 45 47 49 54 56 60 63 66 68 70 73 76 75 74 78 73 71 73 76 77 80 81 83 82 84 88 93 96 97 99 99 100 102 103 96 100 98 96 96 98 95 94 97 97 95 97
45 47 51 55 58 61 63 68 73 70 73 74 81 76 72 70 74 78 79 82 84 84 88 86 90 92 94 99 105 109 109 111 114 116 112 111 109 108 109 108 107 108 107 110 107 105 100
47 51 53 56 62 65 69 73 75 76 78 78 74 76 73 74 76 81 86 89 89 94 95 99 97 101 109 104 107 113 116 116 119 122 120 122 116 116 118 118 114 116 116 122 116 115 109
50 54 57 63 66 70 72 72 76 80 80 73 77 75 77 80 84 91 98 97 100 101 99 100 104 109 110 112 123 120 121 125 124 127 126 122 116 114 123 128 127 121 127 120 129 126 127
54 57 60 65 69 70 71 73 82 79 74 73 79 81 81 88 94 99 104 109 117 117 116 116 118 115 116 115 116 120 119 120 122 123 124 121 122 113 115 123 127 130 129 130 132 134 133
55 60 63 62 69 71 72 78 83 75 80 84 85 92 95 99 103 110 118 119 122 122 123 122 122 123 121 119 116 111 107 105 105 103 110 113 116 109 113 117 121 124 128 132 137 138 139
62 67 67 70 73 76 80 83 80 80 83 88 92 96 106 110 117 123 128 133 132 130 128 123 125 121 115 105 94 89 87 88 86 86 92 95 91 95 90 104 112 121 128 136 139 142 141
68 71 69 74 76 85 82 84 82 85 90 94 101 107 113 122 126 132 136 138 137 129 125 118 113 105 99 95 87 81 79 77 74 77 80 85 88 87 84 88 95 99 106 115 123 135 144
72 70 70 75 87 86 85 86 86 92 98 105 109 115 124 132 139 141 139 140 132 126 122 110 103 98 90 86 82 75 70 67 68 67 69 69 71 78 77 79 88 89 96 100 105 108 120
70 77 81 86 87 91 91 92 94 97 106 111 116 124 134 141 145 152 146 138 130 121 113 103 97 94 90 86 80 79 73 69 68 67 64 63 61 70 69 70 72 77 81 87 94 97 102
74 80 87 89 93 94 98 95 102 106 111 120 123 130 138 148 152 154 146 137 124 111 109 98 94 90 84 79 75 69 67 70 64 67 64 61 60 63 63 65 68 70 74 80 83 89 93
78 86 88 89 93 98 95 102 106 113 118 127 132 139 146 153 160 153 142 130 116 108 102 98 84 77 74 71 68 66 60 57 56 59 58 57 56 56 59 62 64 64 72 74 79 83 87
87 90 92 92 96 98 102 109 113 120 125 133 142 149 156 158 157 145 135 121 113 106 96 88 80 74 67 62 61 60 54 54 52 49 49 49 50 52 57 59 62 62 66 68 73 77 82
90 93 95 99 100 105 109 114 120 127 133 142 149 158 161 152 144 137 123 115 105 95 93 86 78 69 62 59 56 55 53 50 48 45 45 45 46 49 52 53 54 56 59 61 64 66 72
92 95 97 102 104 109 114 120 127 135 140 149 156 164 161 147 139 128 117 108 94 86 84 80 74 63 59 56 52 50 49 47 46 43 43 42 44 45 48 47 48 49 51 54 60 61 68
94 99 103 107 112 115 120 125 133 139 146 153 162 167 153 142 129 120 110 98 89 82 77 72 66 63 59 55 52 49 47 46 45 43 42 41 40 42 42 42 43 45 46 47 51 57 61
100 105 107 110 114 120 126 132 140 145 150 157 164 157 146 134 122 110 99 91 85 81 74 68 62 58 56 54 52 48 46 44 42 41 39 40 40 40 40 40 39 42 42 43 45 50 54
106 106 111 115 119 126 130 138 144 153 155 162 157 145 135 123 115 103 92 86 83 78 72 65 61 57 53 49 49 48 45 43 41 40 39 36 38 39 40 40 41 38 39 40 42 44 48
Wind_Direction
2 352 358 2 1 356 355 358 357 353 358 3 5 350 341 334 339 338 312 292 275 273 274 270 264 263 264 265 266 264 267 268 271 272 272 272 271 270 269 268 266 263 264 267 268 264 264
352 342 349 352 351 349 347 348 350 351 356 353 354 356 348 345 342 333 326 319 295 284 274 268 272 275 273 269 272 270 267 266 265 268 268 267 264 264 268 265 266 262 268 268 268 270 265
348 346 343 338 341 341 340 340 342 344 346 344 342 343 345 342 341 345 344 324 312 300 296 274 262 265 267 271 269 269 270 269 266 265 264 266 265 259 261 265 265 262 266 270 273 271 270
350 345 341 336 335 335 339 339 341 342 337 335 339 336 335 335 334 330 335 332 317 308 305 300 277 264 267 273 274 267 270 270 265 266 266 263 261 258 260 261 264 264 266 265 271 275 275
339 337 336 338 338 338 339 338 339 336 337 336 332 332 328 330 334 333 342 322 320 314 304 297 291 280 273 272 274 274 271 270 271 270 271 270 263 260 259 260 260 268 265 264 262 275 274
334 334 336 332 333 332 335 332 331 331 331 333 335 328 324 326 325 328 335 336 316 318 313 301 294 285 277 273 274 272 272 271 270 268 268 267 267 268 269 265 261 263 265 267 270 274 274
317 327 328 329 328 328 329 330 331 330 330 328 332 328 329 324 323 324 319 328 327 322 319 311 299 289 283 279 279 276 274 273 271 269 268 266 265 265 263 265 267 268 267 268 270 270 272
324 323 320 322 323 324 323 326 325 324 327 326 327 326 323 323 324 320 322 324 323 312 314 312 310 300 290 280 273 271 270 270 269 270 270 268 268 266 265 264 264 265 266 265 263 264 266
306 310 314 320 324 322 322 321 322 322 321 326 323 321 321 322 320 320 319 318 318 313 305 308 305 300 296 289 285 280 275 270 269 268 266 266 268 268 267 265 265 265 266 266 265 265 265
313 310 312 319 319 317 327 326 323 321 318 323 324 321 320 318 319 317 317 317 314 306 298 295 298 295 293 290 283 279 277 277 277 272 268 265 267 265 265 265 267 262 266 262 263 264 265
305 309 309 312 312 318 323 325 326 319 317 315 325 321 317 314 315 316 317 315 309 303 298 293 292 293 295 293 288 281 275 274 274 272 273 271 265 265 263 264 265 263 265 266 264 263 261
304 304 306 309 312 315 320 322 324 323 316 315 320 317 315 314 316 315 313 309 305 300 297 298 295 294 291 289 288 286 283 280 276 272 270 268 267 265 264 263 264 262 261 262 262 261 258
302 302 304 308 308 313 318 320 319 318 318 313 317 317 318 316 316 315 310 305 303 303 300 298 295 293 291 289 287 284 283 282 280 278 275 273 270 270 269 267 265 265 264 262 259 260 261
306 309 309 310 312 314 316 316 317 316 316 316 316 317 316 315 311 309 308 305 305 302 298 295 294 292 289 287 287 283 280 278 277 278 271 267 263 265 267 267 265 264 263 263 266 263 260
307 308 307 309 309 312 312 316 313 315 317 317 318 316 312 311 311 312 313 308 307 305 303 302 300 294 291 289 287 282 282 281 280 278 277 273 268 262 264 264 263 264 262 263 259 261 261
306 306 307 310 309 310 315 316 317 316 318 314 313 313 311 313 317 315 315 316 318 315 310 306 303 300 295 291 288 288 286 280 278 277 274 271 272 267 262 261 260 261 261 261 259 259 258
306 310 309 313 315 314 313 312 316 315 315 314 311 315 315 319 319 320 323 321 317 315 313 308 306 303 301 297 294 291 286 282 280 275 272 271 269 267 264 262 258 259 260 258 258 256 257
310 311 314 317 314 317 312 318 317 317 318 316 315 315 318 323 321 324 323 323 319 317 314 310 307 304 301 298 296 292 288 282 280 276 272 272 269 267 263 261 258 256 256 256 256 255 257
312 316 316 312 316 317 319 318 318 317 320 322 320 320 322 324 326 325 323 321 320 316 313 311 308 307 304 301 298 295 289 285 280 274 270 268 269 267 264 261 259 255 254 256 256 254 253
314 315 318 317 320 318 317 317 317 320 321 320 322 322 325 326 327 326 325 322 319 318 316 315 312 308 305 301 300 294 290 285 280 274 271 268 267 268 266 262 260 258 256 255 256 255 253
323 324 323 320 321 319 318 319 318 320 319 321 322 327 327 326 327 329 324 324 322 320 317 315 311 308 305 301 298 296 293 287 283 278 275 271 268 266 265 261 260 260 258 255 256 255 254
320 317 319 322 320 319 319 320 323 323 321 323 326 327 329 327 327 328 326 325 321 321 317 313 311 308 305 303 300 295 294 290 285 282 279 275 269 266 265 263 259 257 255 255 254 254 253
316 319 321 321 322 319 321 326 325 324 325 326 326 329 328 328 328 327 326 324 322 320 316 314 313 310 306 305 302 300 298 291 287 284 282 279 274 269 264 263 262 258 256 254 252 252 253
316 321 320 318 322 321 325 327 326 326 325 326 329 328 330 328 327 327 326 324 321 320 318 316 314 313 310 308 306 302 300 296 292 288 285 280 275 269 265 263 264 261 257 254 252 251 251
319 318 319 321 321 326 326 326 328 326 325 327 326 329 327 327 327 327 325 323 322 321 319 318 317 315 314 312 309 306 304 300 297 293 288 281 275 270 264 263 264 261 259 258 254 251 251
318 320 322 323 321 327 325 326 325 326 327 327 327 327 330 329 327 327 325 323 321 322 321 319 319 317 315 312 310 308 306 303 300 298 288 282 277 270 268 266 265 263 259 255 253 251 249
318 320 323 327 328 326 327 325 325 327 327 328 329 328 328 328 327 327 325 323 322 323 323 320 318 318 318 316 313 311 307 305 302 298 293 284 276 273 269 269 268 266 262 258 256 254 253
315 319 324 326 326 328 327 326 327 329 329 330 330 328 328 327 328 327 325 324 325 326 324 320 320 318 317 316 313 311 308 305 301 297 290 283 279 272 268 269 270 269 266 262 259 256 256
316 321 325 326 326 327 326 326 328 329 330 331 330 329 329 328 328 327 326 326 327 327 325 323 320 319 317 317 314 312 310 305 301 298 293 286 279 274 269 265 266 268 268 267 263 258 256